IGO6429 VIDP-VILH

Flight info

Callsign IGO6429
Flight time 0h 58m
Altitude 37000
Route SP W39 LELAX DCT 3319N07802E/N0455F360 DCT 340000N0773953E 340504N0773438E 340754N0773442E 340918N0773315E 341005N0773124E 340959N0772836E 340830N0772736E DCT 340712N0772941E
Aircraft A21N/M-SDE2E3FGHIRWXY/LB1

Departure

Time 2026-04-27 09:16
Airport Indira Gandhi International Airport (VIDP)

Arrival

Time 2026-04-27 10:15
Airport Leh Kushok Bakula Rimpochee Airport (VILH)
Time Latitude Longitude Altitude Speed Heading
2026-04-27 08:27 28.56498 77.11019 775 ft 0 kts 100°
2026-04-27 09:00 28.56499 77.11007 775 ft 4 kts 106°
2026-04-27 09:00 28.56511 77.10982 775 ft 4 kts 137°
2026-04-27 09:01 28.56532 77.10970 775 ft 4 kts 184°
2026-04-27 09:01 28.56543 77.10971 775 ft 1 kts 193°
2026-04-27 09:01 28.56544 77.10972 775 ft 0 kts 193°
2026-04-27 09:06 28.56541 77.10971 775 ft 1 kts 193°
2026-04-27 09:06 28.56529 77.10968 775 ft 3 kts 193°
2026-04-27 09:06 28.56504 77.10961 774 ft 5 kts 193°
2026-04-27 09:07 28.56467 77.10951 774 ft 6 kts 193°
2026-04-27 09:07 28.56419 77.10937 773 ft 8 kts 193°
2026-04-27 09:07 28.56362 77.10921 772 ft 9 kts 192°
2026-04-27 09:07 28.56312 77.10965 773 ft 11 kts 105°
2026-04-27 09:08 28.56294 77.11060 774 ft 13 kts 107°
2026-04-27 09:08 28.56268 77.11170 775 ft 15 kts 103°
2026-04-27 09:08 28.56242 77.11296 777 ft 17 kts 104°
2026-04-27 09:08 28.56209 77.11434 780 ft 19 kts 106°
2026-04-27 09:09 28.56178 77.11522 781 ft 6 kts 139°
2026-04-27 09:09 28.56135 77.11554 781 ft 9 kts 149°
2026-04-27 09:09 28.56077 77.11591 781 ft 11 kts 148°
2026-04-27 09:09 28.56007 77.11649 783 ft 14 kts 133°
2026-04-27 09:10 28.55960 77.11754 785 ft 16 kts 149°
2026-04-27 09:10 28.55846 77.11757 785 ft 15 kts 199°
2026-04-27 09:10 28.55802 77.11665 784 ft 16 kts 287°
2026-04-27 09:10 28.55824 77.11535 782 ft 17 kts 253°
2026-04-27 09:11 28.55748 77.11434 782 ft 19 kts 202°
2026-04-27 09:11 28.55617 77.11390 782 ft 20 kts 194°
2026-04-27 09:11 28.55478 77.11349 783 ft 21 kts 195°
2026-04-27 09:11 28.55330 77.11302 784 ft 23 kts 195°
2026-04-27 09:12 28.55173 77.11252 786 ft 24 kts 195°
2026-04-27 09:12 28.55007 77.11199 787 ft 26 kts 195°
2026-04-27 09:12 28.54830 77.11143 788 ft 27 kts 195°
2026-04-27 09:12 28.54646 77.11084 789 ft 28 kts 196°
2026-04-27 09:13 28.54471 77.11028 789 ft 19 kts 189°
2026-04-27 09:13 28.54342 77.11064 790 ft 20 kts 135°
2026-04-27 09:13 28.54243 77.11170 791 ft 11 kts 153°
2026-04-27 09:13 28.54218 77.11180 791 ft 0 kts 170°
2026-04-27 09:14 28.54217 77.11180 791 ft 0 kts 170°
2026-04-27 09:14 28.54205 77.11182 791 ft 3 kts 175°
2026-04-27 09:15 28.54175 77.11178 791 ft 6 kts 189°
2026-04-27 09:15 28.54127 77.11169 791 ft 8 kts 195°
2026-04-27 09:15 28.54101 77.11111 790 ft 11 kts 278°
2026-04-27 09:15 28.54130 77.10946 788 ft 49 kts 283°
2026-04-27 09:16 28.54270 77.10293 783 ft 118 kts 284°
2026-04-27 09:16 28.54508 77.09180 765 ft 168 kts 284°
2026-04-27 09:16 28.54793 77.07848 1225 ft 175 kts 286°
2026-04-27 09:16 28.55099 77.06517 1965 ft 173 kts 287°
2026-04-27 09:17 28.55410 77.05149 2438 ft 186 kts 286°
2026-04-27 09:17 28.55766 77.03679 2911 ft 201 kts 286°
2026-04-27 09:17 28.56158 77.02067 3276 ft 223 kts 286°
2026-04-27 09:17 28.56751 77.00366 3648 ft 240 kts 304°
2026-04-27 09:18 28.58024 76.99057 4045 ft 257 kts 330°
2026-04-27 09:18 28.59778 76.98539 4608 ft 268 kts 355°
2026-04-27 09:18 28.61630 76.98940 5254 ft 276 kts 17°
2026-04-27 09:18 28.63432 76.99756 5928 ft 280 kts 14°
2026-04-27 09:19 28.65305 77.00386 6585 ft 281 kts 11°
2026-04-27 09:19 28.67190 77.00975 7298 ft 281 kts 11°
2026-04-27 09:19 28.69084 77.01569 8018 ft 283 kts 12°
2026-04-27 09:19 28.70987 77.02173 8753 ft 285 kts 12°
2026-04-27 09:20 28.72902 77.02785 9514 ft 286 kts 12°
2026-04-27 09:20 28.74842 77.03401 9993 ft 299 kts 12°
2026-04-27 09:20 28.76896 77.04055 10263 ft 318 kts 12°
2026-04-27 09:20 28.79094 77.04762 10511 ft 337 kts 12°
2026-04-27 09:21 28.81409 77.05511 10733 ft 354 kts 12°
2026-04-27 09:21 28.83817 77.06287 11088 ft 365 kts 12°
2026-04-27 09:21 28.86280 77.07081 11659 ft 369 kts 12°
2026-04-27 09:21 28.88759 77.07884 12246 ft 372 kts 12°
2026-04-27 09:22 28.91260 77.08694 12839 ft 375 kts 12°
2026-04-27 09:22 28.92924 77.09230 13228 ft 377 kts 12°
2026-04-27 09:22 28.95461 77.10049 13763 ft 380 kts 12°
2026-04-27 09:22 28.98016 77.10873 14256 ft 383 kts 12°
2026-04-27 09:23 29.00592 77.11702 14732 ft 386 kts 12°
2026-04-27 09:23 29.03192 77.12542 15194 ft 390 kts 12°
2026-04-27 09:23 29.05819 77.13390 15657 ft 394 kts 12°
2026-04-27 09:23 29.08464 77.14247 16112 ft 397 kts 12°
2026-04-27 09:24 29.11134 77.15112 16567 ft 400 kts 12°
2026-04-27 09:24 29.13824 77.15987 17023 ft 403 kts 12°
2026-04-27 09:24 29.16537 77.16866 17469 ft 407 kts 12°
2026-04-27 09:24 29.19268 77.17749 17905 ft 410 kts 12°
2026-04-27 09:25 29.22024 77.18642 18291 ft 413 kts 12°
2026-04-27 09:25 29.24801 77.19544 18677 ft 416 kts 12°
2026-04-27 09:25 29.27596 77.20452 19086 ft 419 kts 12°
2026-04-27 09:25 29.30411 77.21366 19482 ft 422 kts 12°
2026-04-27 09:26 29.33248 77.22291 19887 ft 424 kts 12°
2026-04-27 09:26 29.36062 77.23209 20294 ft 427 kts 12°
2026-04-27 09:26 29.38926 77.24143 20712 ft 429 kts 12°
2026-04-27 09:26 29.41810 77.25080 21138 ft 432 kts 12°
2026-04-27 09:27 29.44713 77.26025 21564 ft 435 kts 12°
2026-04-27 09:27 29.47639 77.26979 21990 ft 438 kts 12°
2026-04-27 09:27 29.50579 77.27936 22397 ft 441 kts 12°
2026-04-27 09:27 29.53545 77.28906 22785 ft 444 kts 12°
2026-04-27 09:28 29.56537 77.29886 23178 ft 447 kts 12°
2026-04-27 09:28 29.59536 77.30864 23499 ft 450 kts 12°
2026-04-27 09:28 29.62558 77.31849 23821 ft 452 kts 12°
2026-04-27 09:28 29.65590 77.32847 24150 ft 454 kts 13°
2026-04-27 09:29 29.68631 77.33866 24478 ft 456 kts 13°
2026-04-27 09:29 29.71684 77.34885 24809 ft 458 kts 13°
2026-04-27 09:29 29.74711 77.35887 25132 ft 460 kts 12°
2026-04-27 09:29 29.77796 77.36892 25449 ft 462 kts 12°
2026-04-27 09:30 29.80904 77.37910 25776 ft 464 kts 12°
2026-04-27 09:30 29.83947 77.38892 26086 ft 466 kts 12°
2026-04-27 09:30 29.87152 77.39930 26404 ft 468 kts 12°
2026-04-27 09:30 29.90298 77.40956 26703 ft 470 kts 12°
2026-04-27 09:31 29.93451 77.41990 27003 ft 472 kts 12°
2026-04-27 09:31 29.96614 77.43029 27299 ft 473 kts 12°
2026-04-27 09:31 29.99820 77.43823 27639 ft 468 kts
2026-04-27 09:31 30.03054 77.44146 28012 ft 465 kts
2026-04-27 09:32 30.06236 77.44390 28395 ft 464 kts 360°
2026-04-27 09:32 30.09455 77.44630 28807 ft 463 kts 360°
2026-04-27 09:32 30.12664 77.44872 29199 ft 461 kts 360°
2026-04-27 09:32 30.15868 77.45118 29592 ft 460 kts
2026-04-27 09:33 30.19063 77.45367 29923 ft 459 kts 360°
2026-04-27 09:33 30.22250 77.45613 30195 ft 460 kts 360°
2026-04-27 09:33 30.25446 77.45860 30496 ft 460 kts 360°
2026-04-27 09:33 30.28636 77.46105 30779 ft 460 kts 360°
2026-04-27 09:34 30.31834 77.46353 31065 ft 460 kts 360°
2026-04-27 09:34 30.35022 77.46605 31340 ft 460 kts 360°
2026-04-27 09:34 30.38216 77.46857 31675 ft 459 kts 359°
2026-04-27 09:34 30.41401 77.47107 31996 ft 458 kts 359°
2026-04-27 09:35 30.44578 77.47357 32272 ft 458 kts 359°
2026-04-27 09:35 30.47758 77.47605 32536 ft 458 kts 359°
2026-04-27 09:35 30.50940 77.47851 32795 ft 458 kts 359°
2026-04-27 09:35 30.54082 77.48096 33025 ft 458 kts 359°
2026-04-27 09:36 30.57274 77.48347 33244 ft 458 kts 359°
2026-04-27 09:36 30.60457 77.48598 33505 ft 457 kts 359°
2026-04-27 09:36 30.63633 77.48846 33727 ft 458 kts 359°
2026-04-27 09:36 30.66810 77.49097 33913 ft 458 kts 359°
2026-04-27 09:37 30.69990 77.49350 34147 ft 458 kts 359°
2026-04-27 09:37 30.73174 77.49603 34347 ft 457 kts 359°
2026-04-27 09:37 30.76344 77.49853 34561 ft 456 kts 359°
2026-04-27 09:37 30.79509 77.50104 34766 ft 456 kts 359°
2026-04-27 09:38 30.82672 77.50355 34979 ft 455 kts 359°
2026-04-27 09:38 30.85784 77.50604 35147 ft 454 kts 358°
2026-04-27 09:38 30.88939 77.50856 35262 ft 455 kts 358°
2026-04-27 09:38 30.92099 77.51106 35412 ft 454 kts 358°
2026-04-27 09:39 30.95250 77.51356 35568 ft 454 kts 359°
2026-04-27 09:39 30.98398 77.51610 35700 ft 453 kts 358°
2026-04-27 09:39 31.01545 77.51862 35836 ft 454 kts 358°
2026-04-27 09:39 31.04699 77.52114 36022 ft 453 kts 359°
2026-04-27 09:40 31.07854 77.52367 36157 ft 453 kts 358°
2026-04-27 09:40 31.11002 77.52614 36264 ft 453 kts 358°
2026-04-27 09:40 31.14150 77.52864 36386 ft 452 kts 358°
2026-04-27 09:40 31.17287 77.53116 36513 ft 453 kts 359°
2026-04-27 09:41 31.20353 77.53365 36677 ft 453 kts 358°
2026-04-27 09:41 31.23531 77.53626 36829 ft 451 kts 358°
2026-04-27 09:41 31.26663 77.53882 36859 ft 450 kts 358°
2026-04-27 09:42 31.32905 77.54390 36846 ft 450 kts 358°
2026-04-27 09:42 31.39157 77.54903 36865 ft 450 kts 358°
2026-04-27 09:43 31.45342 77.55407 36853 ft 450 kts 358°
2026-04-27 09:43 31.51652 77.55920 36938 ft 447 kts 358°
2026-04-27 09:44 31.57868 77.56431 36961 ft 447 kts 358°
2026-04-27 09:44 31.64078 77.56942 36955 ft 446 kts 358°
2026-04-27 09:45 31.70267 77.57453 37023 ft 448 kts 358°
2026-04-27 09:45 31.76500 77.57968 37037 ft 447 kts 358°
2026-04-27 09:46 31.82702 77.58485 37081 ft 447 kts 358°
2026-04-27 09:46 31.88922 77.59003 37086 ft 448 kts 358°
2026-04-27 09:47 31.95090 77.59518 37182 ft 442 kts 358°
2026-04-27 09:47 32.01272 77.60035 37173 ft 447 kts 359°
2026-04-27 09:48 32.07397 77.60554 37158 ft 435 kts 359°
2026-04-27 09:48 32.13461 77.61057 37176 ft 440 kts 359°
2026-04-27 09:49 32.19630 77.61564 37200 ft 447 kts 360°
2026-04-27 09:49 32.25840 77.62085 37194 ft 446 kts 359°
2026-04-27 09:50 32.31995 77.62600 37186 ft 447 kts 359°
2026-04-27 09:50 32.38209 77.63201 37186 ft 451 kts
2026-04-27 09:51 32.44302 77.65336 37175 ft 460 kts 15°
2026-04-27 09:51 32.50335 77.67992 37181 ft 462 kts 15°
2026-04-27 09:52 32.56352 77.70604 37168 ft 459 kts 15°
2026-04-27 09:52 32.62280 77.73172 37026 ft 447 kts 14°
2026-04-27 09:52 32.65233 77.74440 36703 ft 456 kts 14°
2026-04-27 09:53 32.68235 77.75728 36401 ft 462 kts 15°
2026-04-27 09:53 32.71275 77.77039 36151 ft 465 kts 15°
2026-04-27 09:53 32.74302 77.78348 35913 ft 462 kts 15°
2026-04-27 09:53 32.77318 77.79650 35647 ft 462 kts 15°
2026-04-27 09:54 32.80327 77.80954 35192 ft 459 kts 15°
2026-04-27 09:54 32.83326 77.82256 34565 ft 458 kts 15°
2026-04-27 09:54 32.86321 77.83554 33866 ft 458 kts 15°
2026-04-27 09:54 32.89319 77.84854 33072 ft 459 kts 15°
2026-04-27 09:55 32.92289 77.86143 32351 ft 461 kts 15°
2026-04-27 09:55 32.95311 77.87456 31625 ft 463 kts 16°
2026-04-27 09:55 33.01374 77.90098 30174 ft 465 kts 16°
2026-04-27 09:56 33.04419 77.91422 29306 ft 467 kts 17°
2026-04-27 09:56 33.07477 77.92757 28551 ft 467 kts 17°
2026-04-27 09:56 33.10524 77.94084 27843 ft 465 kts 17°
2026-04-27 09:56 33.13560 77.95408 27169 ft 463 kts 17°
2026-04-27 09:57 33.16585 77.96733 26493 ft 462 kts 17°
2026-04-27 09:57 33.19598 77.98051 25860 ft 460 kts 17°
2026-04-27 09:57 33.22592 77.99360 25238 ft 457 kts 17°
2026-04-27 09:57 33.25580 78.00666 24578 ft 456 kts 18°
2026-04-27 09:58 33.28570 78.01860 23875 ft 450 kts 11°
2026-04-27 09:58 33.31658 78.02288 22813 ft 446 kts 354°
2026-04-27 09:58 33.34650 78.01631 22248 ft 430 kts 338°
2026-04-27 09:58 33.37325 78.00324 21894 ft 409 kts 333°
2026-04-27 09:59 33.39865 77.98977 21543 ft 389 kts 332°
2026-04-27 09:59 33.42278 77.97678 21170 ft 371 kts 332°
2026-04-27 09:59 33.44590 77.96432 20851 ft 357 kts 332°
2026-04-27 09:59 33.46812 77.95234 20672 ft 345 kts 333°
2026-04-27 10:00 33.48983 77.94061 20274 ft 342 kts 333°
2026-04-27 10:00 33.51147 77.92895 19841 ft 340 kts 333°
2026-04-27 10:00 33.53279 77.91754 19640 ft 330 kts 333°
2026-04-27 10:00 33.55344 77.90644 19490 ft 320 kts 333°
2026-04-27 10:01 33.57336 77.89576 19363 ft 308 kts 332°
2026-04-27 10:01 33.59252 77.88544 19237 ft 296 kts 333°
2026-04-27 10:01 33.61063 77.87507 19119 ft 280 kts 326°
2026-04-27 10:01 33.62671 77.86309 19016 ft 262 kts 323°
2026-04-27 10:02 33.64156 77.85250 19009 ft 245 kts 334°
2026-04-27 10:02 33.65741 77.84597 18929 ft 237 kts 339°
2026-04-27 10:02 33.67263 77.83962 18794 ft 226 kts 336°
2026-04-27 10:02 33.68708 77.83296 18706 ft 218 kts 334°
2026-04-27 10:03 33.70082 77.82630 18584 ft 207 kts 333°
2026-04-27 10:03 33.71378 77.81973 18408 ft 199 kts 333°
2026-04-27 10:03 33.72642 77.81310 18076 ft 196 kts 331°
2026-04-27 10:03 33.73881 77.80648 17705 ft 195 kts 333°
2026-04-27 10:04 33.75126 77.79980 17362 ft 196 kts 333°
2026-04-27 10:04 33.76360 77.79311 17139 ft 191 kts 332°
2026-04-27 10:04 33.77582 77.78671 17209 ft 192 kts 333°
2026-04-27 10:04 33.78816 77.78003 17168 ft 195 kts 332°
2026-04-27 10:05 33.80117 77.77288 17202 ft 212 kts 333°
2026-04-27 10:05 33.81467 77.76557 17160 ft 212 kts 333°
2026-04-27 10:05 33.82798 77.75832 17204 ft 215 kts 333°
2026-04-27 10:05 33.84152 77.75098 17148 ft 206 kts 333°
2026-04-27 10:06 33.85388 77.74429 17016 ft 189 kts 332°
2026-04-27 10:06 33.86581 77.73783 16833 ft 190 kts 332°
2026-04-27 10:06 33.87815 77.73109 16692 ft 197 kts 332°
2026-04-27 10:06 33.89053 77.72440 16551 ft 193 kts 331°
2026-04-27 10:07 33.90277 77.71780 16364 ft 191 kts 330°
2026-04-27 10:07 33.91489 77.71123 16270 ft 192 kts 332°
2026-04-27 10:07 33.92695 77.70476 16095 ft 193 kts 335°
2026-04-27 10:07 33.93939 77.69805 15918 ft 198 kts 337°
2026-04-27 10:08 33.95197 77.69115 15870 ft 199 kts 337°
2026-04-27 10:08 33.96461 77.68423 15948 ft 200 kts 336°
2026-04-27 10:08 33.97722 77.67737 15927 ft 199 kts 336°
2026-04-27 10:08 33.98986 77.67050 15984 ft 199 kts 336°
2026-04-27 10:09 34.00228 77.66328 15844 ft 197 kts 331°
2026-04-27 10:09 34.01392 77.65463 15668 ft 197 kts 328°
2026-04-27 10:09 34.02535 77.64599 15488 ft 196 kts 328°
2026-04-27 10:09 34.03682 77.63737 15319 ft 194 kts 327°
2026-04-27 10:10 34.04817 77.62881 15161 ft 191 kts 326°
2026-04-27 10:10 34.05940 77.62033 15009 ft 189 kts 325°
2026-04-27 10:10 34.07055 77.61202 14845 ft 188 kts 326°
2026-04-27 10:10 34.07804 77.60640 14754 ft 187 kts 326°
2026-04-27 10:11 34.08888 77.59822 14640 ft 185 kts 323°
2026-04-27 10:11 34.09983 77.59003 14718 ft 185 kts 326°
2026-04-27 10:11 34.11071 77.58186 14388 ft 187 kts 325°
2026-04-27 10:11 34.12176 77.57360 14454 ft 186 kts 324°
2026-04-27 10:12 34.13272 77.56534 14488 ft 186 kts 324°
2026-04-27 10:12 34.14270 77.55574 14475 ft 181 kts 308°
2026-04-27 10:12 34.14982 77.54394 14044 ft 170 kts 302°
2026-04-27 10:12 34.15686 77.53205 13588 ft 179 kts 302°
2026-04-27 10:13 34.16286 77.51952 13347 ft 169 kts 287°
2026-04-27 10:13 34.16413 77.50582 12939 ft 166 kts 260°
2026-04-27 10:13 34.16012 77.49196 12557 ft 177 kts 242°
2026-04-27 10:13 34.15045 77.48298 12264 ft 182 kts 199°
2026-04-27 10:14 34.13755 77.48435 11670 ft 193 kts 167°
2026-04-27 10:14 34.12673 77.49337 11420 ft 193 kts 129°
2026-04-27 10:14 34.12219 77.50869 11129 ft 198 kts 87°
2026-04-27 10:14 34.12701 77.52326 10832 ft 190 kts 47°
2026-04-27 10:15 34.13335 77.53697 10647 ft 186 kts 70°
2026-04-27 10:15 34.13709 77.54992 10772 ft 127 kts 70°
2026-04-27 10:15 34.13898 77.55656 10855 ft 39 kts 70°